When you browse on this site, cookies collect data to enhance your experience and personalize the content and advertising you see.
Visit our Privacy Policy to learn more. By continuing to use the site, you agree to this use of cookies and data.
  • In Czech Republic
  • List of Countries
  • For 7 days
  • Water Temperature
  • Satellite Maps
  • Weather Map
  • Weather Widgets
  • user-avatar
    Login

    Hourly Weather Jalapa

    Today, 17 December, Monday

    Time Temperature Precipitation Wind Pressure Humidity
    00:00 +11°C° 0 mm 3 mps 644 mmHg 89%
    01:00 +12°C° 0 mm 2 mps 643 mmHg 89%
    02:00 +12°C° 0 mm 2 mps 643 mmHg 89%
    03:00 +12°C° 0 mm 2 mps 643 mmHg 89%
    04:00 +12°C° 0 mm 2 mps 643 mmHg 89%
    05:00 +12°C° 0 mm 2 mps 643 mmHg 89%
    06:00 +12°C° 0 mm 2 mps 643 mmHg 90%
    07:00 +14°C° 0 mm 2 mps 644 mmHg 82%
    08:00 +16°C° 0 mm 2 mps 645 mmHg 74%
    09:00 +18°C° 0 mm 2 mps 646 mmHg 66%
    10:00 +20°C° 0 mm 2 mps 646 mmHg 60%
    11:00 +21°C° 0 mm 2 mps 646 mmHg 54%
    12:00 +24°C° 0 mm 2 mps 646 mmHg 48%
    13:00 +24°C° 0 mm 2 mps 646 mmHg 49%
    14:00 +24°C° 0 mm 3 mps 645 mmHg 51%
    15:00 +24°C° 0 mm 3 mps 645 mmHg 52%
    16:00 +21°C° 0 mm 2 mps 644 mmHg 61%
    17:00 +18°C° 0 mm 2 mps 643 mmHg 70%
    18:00 +16°C° 0 mm 2 mps 643 mmHg 79%
    19:00 +16°C° 0 mm 2 mps 643 mmHg 82%
    20:00 +15°C° 0 mm 2 mps 643 mmHg 86%
    21:00 +15°C° 0 mm 2 mps 644 mmHg 89%
    22:00 +14°C° 0 mm 2 mps 643 mmHg 89%
    23:00 +14°C° 0 mm 2 mps 643 mmHg 90%

    Tomorrow, 18 December, Tuesday

    Time Temperature Precipitation Wind Pressure Humidity
    00:00 +14°C° 0 mm 2 mps 643 mmHg 91%
    01:00 +14°C° 0 mm 2 mps 643 mmHg 90%
    02:00 +14°C° 0 mm 2 mps 642 mmHg 90%
    03:00 +14°C° 0 mm 2 mps 642 mmHg 90%
    04:00 +14°C° 0 mm 2 mps 642 mmHg 90%
    05:00 +14°C° 0 mm 2 mps 642 mmHg 90%
    06:00 +13°C° 0 mm 2 mps 642 mmHg 91%
    07:00 +15°C° 0 mm 2 mps 643 mmHg 83%
    08:00 +17°C° 0 mm 2 mps 644 mmHg 75%
    09:00 +19°C° 0 mm 2 mps 645 mmHg 67%
    10:00 +21°C° 0 mm 2 mps 645 mmHg 61%
    11:00 +23°C° 0 mm 2 mps 645 mmHg 55%
    12:00 +25°C° 0 mm 2 mps 645 mmHg 49%
    13:00 +25°C° 0 mm 2 mps 644 mmHg 48%
    14:00 +25°C° 0 mm 2 mps 644 mmHg 47%
    15:00 +25°C° 0 mm 2 mps 643 mmHg 46%
    16:00 +23°C° 0 mm 1 mps 642 mmHg 57%
    17:00 +20°C° 0 mm 1 mps 642 mmHg 67%
    18:00 +18°C° 0 mm 1 mps 641 mmHg 78%
    19:00 +16°C° 0 mm 1 mps 641 mmHg 82%
    20:00 +15°C° 0 mm 1 mps 642 mmHg 87%
    21:00 +14°C° 0 mm 1 mps 642 mmHg 92%
    22:00 +14°C° 0 mm 1 mps 642 mmHg 92%
    23:00 +14°C° 0 mm 1 mps 642 mmHg 93%

    Day after tomorrow, 19 December, Wednesday

    Time Temperature Precipitation Wind Pressure Humidity
    00:00 +13°C° 0 mm 1 mps 641 mmHg 94%
    01:00 +13°C° 0 mm 1 mps 641 mmHg 94%
    02:00 +13°C° 0 mm 1 mps 641 mmHg 93%
    03:00 +13°C° 0 mm 1 mps 640 mmHg 93%
    04:00 +13°C° 0 mm 1 mps 640 mmHg 92%
    05:00 +13°C° 0 mm 1 mps 640 mmHg 91%
    06:00 +12°C° 0 mm 1 mps 640 mmHg 90%
    07:00 +15°C° 0 mm 1 mps 642 mmHg 77%
    08:00 +20°C° 0 mm 1 mps 643 mmHg 63%
    09:00 +23°C° 0 mm 1 mps 644 mmHg 50%
    10:00 +24°C° 0 mm 1 mps 644 mmHg 45%
    11:00 +26°C° 0 mm 1 mps 644 mmHg 40%
    12:00 +27°C° 0 mm 2 mps 644 mmHg 34%
    13:00 +27°C° 0 mm 2 mps 643 mmHg 35%
    14:00 +27°C° 0 mm 2 mps 642 mmHg 35%
    15:00 +27°C° 0 mm 2 mps 642 mmHg 36%
    16:00 +24°C° 0 mm 2 mps 641 mmHg 45%
    17:00 +21°C° 0 mm 2 mps 641 mmHg 54%
    18:00 +19°C° 0 mm 1 mps 640 mmHg 64%
    19:00 +18°C° 0 mm 1 mps 640 mmHg 69%
    20:00 +16°C° 0 mm 1 mps 641 mmHg 74%
    21:00 +15°C° 0 mm 1 mps 641 mmHg 80%
    22:00 +15°C° 0 mm 1 mps 641 mmHg 80%
    23:00 +14°C° 0 mm 1 mps 640 mmHg 81%

    20 December, Thursday

    Time Temperature Precipitation Wind Pressure Humidity
    00:00 +14°C° 0 mm 1 mps 640 mmHg 81%
    01:00 +14°C° 0 mm 1 mps 640 mmHg 80%
    02:00 +14°C° 0 mm 1 mps 640 mmHg 79%
    03:00 +14°C° 0 mm 1 mps 639 mmHg 78%
    04:00 +13°C° 0 mm 1 mps 640 mmHg 77%
    05:00 +13°C° 0 mm 1 mps 640 mmHg 76%
    06:00 +13°C° 0 mm 1 mps 640 mmHg 75%
    07:00 +16°C° 0 mm 1 mps 641 mmHg 64%
    08:00 +18°C° 0 mm 0 mps 643 mmHg 54%
    09:00 +22°C° 0 mm 0 mps 645 mmHg 43%
    10:00 +24°C° 0 mm 0 mps 645 mmHg 39%
    11:00 +26°C° 0 mm 0 mps 645 mmHg 35%
    12:00 +30°C° 0 mm 1 mps 645 mmHg 31%
    13:00 +29°C° 0 mm 1 mps 644 mmHg 32%
    14:00 +28°C° 0 mm 1 mps 643 mmHg 33%
    15:00 +27°C° 0 mm 1 mps 642 mmHg 34%
    16:00 +25°C° 0 mm 1 mps 642 mmHg 45%
    17:00 +22°C° 0 mm 1 mps 641 mmHg 55%
    18:00 +19°C° 0 mm 1 mps 641 mmHg 66%
    19:00 +18°C° 0.1 mm 1 mps 641 mmHg 73%
    20:00 +18°C° 0.1 mm 1 mps 642 mmHg 80%
    21:00 +16°C° 0.1 mm 2 mps 642 mmHg 87%
    22:00 +16°C° 0.1 mm 2 mps 642 mmHg 89%
    23:00 +16°C° 0.1 mm 2 mps 642 mmHg 91%

    21 December, Friday

    Time Temperature Precipitation Wind Pressure Humidity
    00:00 +15°C° 0.1 mm 2 mps 642 mmHg 92%
    01:00 +15°C° 0.1 mm 2 mps 642 mmHg 92%
    02:00 +14°C° 0.1 mm 3 mps 642 mmHg 91%
    03:00 +14°C° 0.1 mm 3 mps 642 mmHg 90%
    04:00 +14°C° 0 mm 3 mps 642 mmHg 89%
    05:00 +13°C° 0 mm 3 mps 642 mmHg 88%
    06:00 +13°C° 0 mm 3 mps 642 mmHg 86%
    07:00 +14°C° 0 mm 3 mps 643 mmHg 80%
    08:00 +14°C° 0 mm 3 mps 644 mmHg 74%
    09:00 +15°C° 0 mm 4 mps 645 mmHg 68%
    10:00 +17°C° 0 mm 4 mps 645 mmHg 65%
    11:00 +18°C° 0 mm 4 mps 644 mmHg 61%
    12:00 +19°C° 0 mm 4 mps 644 mmHg 58%
    13:00 +19°C° 0 mm 4 mps 644 mmHg 57%
    14:00 +19°C° 0 mm 4 mps 643 mmHg 56%
    15:00 +19°C° 0 mm 4 mps 643 mmHg 55%
    16:00 +18°C° 0 mm 3 mps 643 mmHg 59%
    17:00 +16°C° 0 mm 3 mps 643 mmHg 63%
    18:00 +14°C° 0 mm 3 mps 643 mmHg 67%
    19:00 +13°C° 0 mm 3 mps 643 mmHg 70%
    20:00 +12°C° 0 mm 3 mps 643 mmHg 73%
    21:00 +11°C° 0 mm 3 mps 643 mmHg 77%
    22:00 +11°C° 0 mm 3 mps 643 mmHg 79%
    23:00 +10°C° 0 mm 3 mps 642 mmHg 81%

    22 December, Saturday

    Time Temperature Precipitation Wind Pressure Humidity
    00:00 +10°C° 0 mm 3 mps 642 mmHg 83%
    01:00 +10°C° 0 mm 3 mps 642 mmHg 83%
    02:00 +9°C° 0 mm 3 mps 641 mmHg 84%
    03:00 +9°C° 0 mm 2 mps 641 mmHg 84%
    04:00 +9°C° 0 mm 2 mps 641 mmHg 85%
    05:00 +9°C° 0 mm 2 mps 641 mmHg 85%
    06:00 +9°C° 0 mm 2 mps 642 mmHg 85%
    07:00 +12°C° 0 mm 2 mps 642 mmHg 77%
    08:00 +12°C° 0 mm 3 mps 643 mmHg 70%
    09:00 +14°C° 0 mm 3 mps 644 mmHg 62%
    10:00 +17°C° 0 mm 3 mps 644 mmHg 56%
    11:00 +19°C° 0 mm 3 mps 644 mmHg 50%
    12:00 +21°C° 0 mm 3 mps 644 mmHg 44%
    13:00 +21°C° 0 mm 3 mps 644 mmHg 45%
    14:00 +21°C° 0 mm 3 mps 643 mmHg 45%
    15:00 +21°C° 0 mm 3 mps 643 mmHg 46%
    16:00 +19°C° 0 mm 3 mps 643 mmHg 54%
    17:00 +17°C° 0 mm 2 mps 642 mmHg 63%
    18:00 +15°C° 0 mm 2 mps 642 mmHg 72%
    19:00 +14°C° 0 mm 2 mps 642 mmHg 76%
    20:00 +13°C° 0 mm 2 mps 643 mmHg 81%
    21:00 +13°C° 0 mm 2 mps 643 mmHg 85%
    22:00 +12°C° 0 mm 2 mps 642 mmHg 86%
    23:00 +12°C° 0 mm 2 mps 642 mmHg 87%
    Show more